Terug naar catalogus

FENGYUN 1C DEB

ActiefSSO
NORAD 31442·DEBRIS·🇨🇳 China

Gelanceerd May 10, 1999 vanaf Taiyuan Satellite Launch Center

Loading…

Volgende Passages (komende 24 uur)

TLE

VerouderendSource: Space-Track

Epoch: Sep 10, 2026, 00:31 UTC

1 31442U 99025BUE 26253.02163168  .00000516  00000-0  19223-3 0  9996
2 31442  98.5190 340.2132 0077291 287.7374  71.5386 14.34470718 12492

Volg FENGYUN 1C DEB in realtime met AllMySat

Download on the App Store